Miscellaneous Local Product
Issued by NWS Hastings, NE

Home | Current Version | Previous Version | Graphics & Text | Print | Product List | Glossary On
Versions: 1 2 3 4 5 6 7 8 9 10 11 12 13 14 15 16 17 18 19 20 21 22 23 24 25 26 27 28 29 30 31 32 33 34 35 36 37 38 39 40 41 42 43 44 45 46 47 48 49 50
670
AXUS43 KGID 261302
MISGRI

GID CWA HOURLY WEATHER ROUNDUP
NATIONAL WEATHER SERVICE HASTINGS NE
800 AM CDT FRI MAY 26 2017

NOTE: "FAIR" INDICATES FEW OR NO CLOUDS BELOW 12,000 FEET WITH NO
SIGNIFICANT WEATHER AND/OR OBSTRUCTIONS TO VISIBILITY.

...SOUTH CENTRAL NEBRASKA...

CITY           SKY/WX    TMP DP  RH WIND       PRES   REMARKS
GRAND ISLAND   MOSUNNY   57  47  69 N16       29.82R
HASTINGS       MOSUNNY   59  45  59 N20       29.82R
KEARNEY        MOSUNNY   57  43  58 N18       29.84R
ORD            CLOUDY    56  44  64 N13       29.84R
YORK           PTSUNNY   61  48  63 N21G28    29.77R
AURORA         MOSUNNY   61  46  58 N22       29.79R
LEXINGTON      SUNNY     58  45  63 N18G24    29.86R
HOLDREGE       SUNNY     57  43  58 N15G22    29.85R
HEBRON         CLOUDY    65  57  75 N15G23    29.76R

...NEBRASKA PANHANDLE...

CITY           SKY/WX    TMP DP  RH WIND       PRES   REMARKS
CHADRON        MOSUNNY   49  40  71 W7        29.93R
ALLIANCE       SUNNY     45  39  79 W5        29.93R
SCOTTSBLUFF    SUNNY     45  38  76 NW6       29.96R
SIDNEY         SUNNY     47  40  76 N8        29.96S

...WESTERN AND NORTH CENTRAL NEBRASKA...

CITY           SKY/WX    TMP DP  RH WIND       PRES   REMARKS
VALENTINE      SUNNY     53  39  59 NW5       29.89R
AINSWORTH      SUNNY     52  43  71 NW9       29.90R
ONEILL         CLOUDY    56  44  64 NW13      29.86R
BROKEN BOW     PTSUNNY   55  44  66 N21       29.86R
IMPERIAL       MOSUNNY   51  44  77 N9        29.93R
NORTH PLATTE   CLOUDY    54  44  69 N13       29.90R
MCCOOK         CLOUDY    55  45  68 N8        29.88S

...EASTERN NEBRASKA...

CITY           SKY/WX    TMP DP  RH WIND       PRES   REMARKS
NORFOLK        CLOUDY    58  46  64 NW17      29.79R
SO SIOUX CITY  PTSUNNY   61  54  77 NW18      29.74R
TEKAMAH        PTSUNNY   62  56  80 NW10      29.72R
ALBION         CLOUDY    58  45  62 N14G22    29.81S
OMAHA EPPLEY   CLOUDY    63  58  83 N5        29.72R
OFFUTT AFB     MOSUNNY   64  59  82 NW6       29.71R
MILLARD        CLOUDY    65  61  84 NW6       29.73R
LINCOLN        MOSUNNY   66  57  72 N14       29.74R
NEBRASKA CITY  PTSUNNY   65  57  76 CALM      29.72R
BEATRICE       MOSUNNY   63  61  92 W6        29.73R
FALLS CITY     SUNNY     65  60  84 CALM      29.69S

...NORTHERN KANSAS...

CITY           SKY/WX    TMP DP  RH WIND       PRES   REMARKS
GOODLAND       CLOUDY    54  51  90 N14       29.91R
HILL CITY      SUNNY     62  57  83 N9        29.85R
NORTON         MOSUNNY   55  45  67 NW13      29.86R
PHILLIPSBURG   SUNNY     61  50  67 N14G23    29.82R
SMITH CENTER   SUNNY     59  52  77 N16G23    29.80R
HAYS           SUNNY     60  55  83 NW12      29.81R
RUSSELL        SUNNY     60  56  86 NW15      29.77R
CONCORDIA      SUNNY     64  60  87 NW5       29.73R
SALINA         SUNNY     65  60  84 CALM      29.71S
TOPEKA         SUNNY     67  63  87 CALM      29.70R



USA.gov is the U.S. government's official web portal to all federal, state and local government web resources and services.